Year,Month,Day,Hour,Minute,Value (Times are PST for temperature in C)
2013,04,27,00,02,10.70
2013,04,27,00,03,10.70
2013,04,27,00,05,10.70
2013,04,27,00,06,10.70
2013,04,27,00,07,10.70
2013,04,27,00,08,10.70
2013,04,27,00,09,10.80
2013,04,27,00,10,10.80
2013,04,27,00,11,10.80
2013,04,27,00,12,10.80
2013,04,27,00,13,10.80
2013,04,27,00,15,10.80
2013,04,27,00,16,10.80
2013,04,27,00,17,10.80
2013,04,27,00,19,10.80
2013,04,27,00,20,10.80
2013,04,27,00,21,10.80
2013,04,27,00,22,10.90
2013,04,27,00,23,10.90
2013,04,27,00,24,10.90
2013,04,27,00,25,10.90
2013,04,27,00,26,10.90
2013,04,27,00,28,10.90
2013,04,27,00,29,10.90
2013,04,27,00,30,10.90
2013,04,27,00,31,10.90
2013,04,27,00,32,10.90
2013,04,27,00,33,11.00
2013,04,27,00,34,11.00
2013,04,27,00,35,11.00
2013,04,27,00,36,11.00
2013,04,27,00,37,11.00
2013,04,27,00,38,11.00
2013,04,27,00,39,11.00
2013,04,27,00,40,11.00
2013,04,27,00,41,11.00
2013,04,27,00,43,11.00
2013,04,27,00,44,11.00
2013,04,27,00,45,11.00
2013,04,27,00,46,11.00
2013,04,27,00,47,11.00
2013,04,27,00,48,11.00
2013,04,27,00,49,11.10
2013,04,27,00,50,11.10
2013,04,27,00,51,11.10
2013,04,27,00,52,11.10
2013,04,27,00,53,11.10
2013,04,27,00,54,11.10
2013,04,27,00,56,11.10
2013,04,27,00,57,11.20
2013,04,27,00,58,11.20
2013,04,27,00,59,11.20
2013,04,27,01,01,11.30
2013,04,27,01,02,11.30
2013,04,27,01,03,11.40
2013,04,27,01,06,11.50
2013,04,27,01,08,11.70
2013,04,27,01,09,11.70
2013,04,27,01,10,11.70
2013,04,27,01,12,11.80
2013,04,27,01,13,12.00
2013,04,27,01,14,12.10
2013,04,27,01,15,12.20
2013,04,27,01,17,12.20
2013,04,27,01,18,12.30
2013,04,27,01,19,12.40
2013,04,27,01,20,12.40
2013,04,27,01,21,12.50
2013,04,27,01,22,12.50
2013,04,27,01,23,12.60
2013,04,27,01,24,12.60
2013,04,27,01,25,12.70
2013,04,27,01,27,12.70
2013,04,27,01,28,12.80
2013,04,27,01,29,12.80
2013,04,27,01,30,12.80
2013,04,27,01,31,12.90
2013,04,27,01,32,12.90
2013,04,27,01,33,12.90
2013,04,27,01,34,12.90
2013,04,27,01,35,12.90
2013,04,27,01,37,12.90
2013,04,27,01,38,12.90
2013,04,27,01,39,13.00
2013,04,27,01,40,13.00
2013,04,27,01,41,13.00
2013,04,27,01,43,13.10
2013,04,27,01,44,13.10
2013,04,27,01,45,13.10
2013,04,27,01,46,13.10
2013,04,27,01,47,13.10
2013,04,27,01,48,13.10
2013,04,27,01,49,13.10
2013,04,27,01,50,13.10
2013,04,27,01,51,13.10
2013,04,27,01,52,13.10
2013,04,27,01,53,13.10
2013,04,27,01,54,13.00
2013,04,27,01,56,13.00
2013,04,27,01,57,13.00
2013,04,27,01,58,12.90
2013,04,27,01,59,12.90
2013,04,27,02,01,12.90
2013,04,27,02,02,12.90
2013,04,27,02,03,12.80
2013,04,27,02,04,12.80
2013,04,27,02,06,12.70
2013,04,27,02,07,12.60
2013,04,27,02,08,12.40
2013,04,27,02,09,12.30
2013,04,27,02,11,12.30
2013,04,27,02,12,12.10
2013,04,27,02,13,12.10
2013,04,27,02,15,11.90
2013,04,27,02,16,11.80
2013,04,27,02,17,11.70
2013,04,27,02,18,11.60
2013,04,27,02,19,11.60
2013,04,27,02,20,11.40
2013,04,27,02,21,11.40
2013,04,27,02,22,11.30
2013,04,27,02,23,11.20
2013,04,27,02,24,11.20
2013,04,27,02,25,11.10
2013,04,27,02,26,11.00
2013,04,27,02,28,10.90
2013,04,27,02,29,10.80
2013,04,27,02,30,10.80
2013,04,27,02,32,10.70
2013,04,27,02,33,10.70
2013,04,27,02,34,10.60
2013,04,27,02,35,10.60
2013,04,27,02,37,10.60
2013,04,27,02,38,10.40
2013,04,27,02,39,10.40
2013,04,27,02,40,10.30
2013,04,27,02,42,10.30
2013,04,27,02,43,10.20
2013,04,27,02,44,10.20
2013,04,27,02,45,10.20
2013,04,27,02,47,10.10
2013,04,27,02,48,10.10
2013,04,27,02,49,10.10
2013,04,27,02,50,10.00
2013,04,27,02,51,10.00
2013,04,27,02,52,10.00
2013,04,27,02,53,9.90
2013,04,27,02,54,9.90
2013,04,27,02,55,9.90
2013,04,27,02,57,9.90
2013,04,27,02,58,9.90
2013,04,27,02,59,9.90
2013,04,27,03,00,9.90
2013,04,27,03,01,9.90
2013,04,27,03,02,9.90
2013,04,27,03,03,9.90
2013,04,27,03,04,9.90
2013,04,27,03,05,9.90
2013,04,27,03,07,9.90
2013,04,27,03,08,9.90
2013,04,27,03,09,9.90
2013,04,27,03,10,9.90
2013,04,27,03,12,9.90
2013,04,27,03,13,9.90
2013,04,27,03,14,9.90
2013,04,27,03,15,9.90
2013,04,27,03,17,10.00
2013,04,27,03,18,10.00
2013,04,27,03,19,10.00
2013,04,27,03,20,10.00
2013,04,27,03,22,10.00
2013,04,27,03,23,10.00
2013,04,27,03,24,10.10
2013,04,27,03,26,10.10
2013,04,27,03,27,10.10
2013,04,27,03,28,10.10
2013,04,27,03,29,10.10
2013,04,27,03,31,10.10
2013,04,27,03,32,10.10
2013,04,27,03,33,10.10
2013,04,27,03,35,10.10
2013,04,27,03,36,10.10
2013,04,27,03,37,10.10
2013,04,27,03,39,10.10
2013,04,27,03,40,10.10
2013,04,27,03,41,10.10
2013,04,27,03,42,10.10
2013,04,27,03,44,10.10
2013,04,27,03,45,10.10
2013,04,27,03,46,10.10
2013,04,27,03,47,10.10
2013,04,27,03,49,10.10
2013,04,27,03,50,10.10
2013,04,27,03,51,10.10
2013,04,27,03,52,10.10
2013,04,27,03,54,10.10
2013,04,27,03,55,10.10
2013,04,27,03,56,10.10
2013,04,27,03,57,10.10
2013,04,27,03,58,10.10
2013,04,27,03,59,10.10
2013,04,27,04,00,10.10
2013,04,27,04,01,10.10
2013,04,27,04,03,10.20
2013,04,27,04,04,10.20
2013,04,27,04,05,10.20
2013,04,27,04,06,10.20
2013,04,27,04,08,10.20
2013,04,27,04,09,10.20
2013,04,27,04,10,10.20
2013,04,27,04,11,10.20
2013,04,27,04,13,10.10
2013,04,27,04,14,10.10
2013,04,27,04,15,10.10
2013,04,27,04,17,10.10
2013,04,27,04,18,10.10
2013,04,27,04,19,10.10
2013,04,27,04,20,10.00
2013,04,27,04,22,10.00
2013,04,27,04,23,9.90
2013,04,27,04,24,9.90
2013,04,27,04,25,9.90
2013,04,27,04,27,9.90
2013,04,27,04,28,9.90
2013,04,27,04,29,9.90
2013,04,27,04,30,9.90
2013,04,27,04,31,9.90
2013,04,27,04,32,9.90
2013,04,27,04,33,9.90
2013,04,27,04,34,10.00
2013,04,27,04,35,10.00
2013,04,27,04,37,10.10
2013,04,27,04,38,10.10
2013,04,27,04,39,10.10
2013,04,27,04,40,10.10
2013,04,27,04,42,10.20
2013,04,27,04,43,10.20
2013,04,27,04,44,10.20
2013,04,27,04,46,10.20
2013,04,27,04,47,10.20
2013,04,27,04,48,10.20
2013,04,27,04,49,10.20
2013,04,27,04,51,10.20
2013,04,27,04,52,10.20
2013,04,27,04,53,10.20
2013,04,27,04,54,10.20
2013,04,27,04,55,10.30
2013,04,27,04,57,10.20
2013,04,27,04,58,10.30
2013,04,27,04,59,10.30
2013,04,27,05,01,10.20
2013,04,27,05,02,10.30
2013,04,27,05,03,10.30
2013,04,27,05,04,10.30
2013,04,27,05,05,10.30
2013,04,27,05,07,10.30
2013,04,27,05,08,10.30
2013,04,27,05,09,10.30
2013,04,27,05,10,10.30
2013,04,27,05,12,10.30
2013,04,27,05,13,10.30
2013,04,27,05,14,10.30
2013,04,27,05,15,10.30
2013,04,27,05,16,10.30
2013,04,27,05,18,10.30
2013,04,27,05,19,10.40
2013,04,27,05,20,10.40
2013,04,27,05,21,10.40
2013,04,27,05,22,10.40
2013,04,27,05,23,10.40
2013,04,27,05,24,10.40
2013,04,27,05,25,10.40
2013,04,27,05,26,10.40
2013,04,27,05,28,10.40
2013,04,27,05,29,10.50
2013,04,27,05,30,10.50
2013,04,27,05,31,10.50
2013,04,27,05,33,10.50
2013,04,27,05,34,10.50
2013,04,27,05,35,10.50
2013,04,27,05,36,10.50
2013,04,27,05,38,10.50
2013,04,27,05,39,10.40
2013,04,27,05,40,10.40
2013,04,27,05,41,10.40
2013,04,27,05,43,10.40
2013,04,27,05,44,10.40
2013,04,27,05,45,10.40
2013,04,27,05,46,10.40
2013,04,27,05,48,10.40
2013,04,27,05,49,10.40
2013,04,27,05,50,10.40
2013,04,27,05,51,10.40
2013,04,27,05,52,10.40
2013,04,27,05,53,10.40
2013,04,27,05,54,10.40
2013,04,27,05,55,10.40
2013,04,27,05,57,10.40
2013,04,27,05,58,10.40
2013,04,27,05,59,10.30
2013,04,27,06,01,10.30
2013,04,27,06,02,10.30
2013,04,27,06,03,10.30
2013,04,27,06,04,10.30
2013,04,27,06,06,10.30
2013,04,27,06,07,10.20
2013,04,27,06,08,10.20
2013,04,27,06,09,10.20
2013,04,27,06,10,10.20
2013,04,27,06,12,10.20
2013,04,27,06,13,10.10
2013,04,27,06,14,10.10
2013,04,27,06,15,10.10
2013,04,27,06,16,10.10
2013,04,27,06,18,10.10
2013,04,27,06,19,10.10
2013,04,27,06,20,10.00
2013,04,27,06,21,10.10
2013,04,27,06,22,10.00
2013,04,27,06,24,10.10
2013,04,27,06,25,10.10
2013,04,27,06,26,10.10
2013,04,27,06,27,10.00
2013,04,27,06,29,10.00
2013,04,27,06,30,10.00
2013,04,27,06,31,10.00
2013,04,27,06,32,10.00
2013,04,27,06,33,10.00
2013,04,27,06,34,10.00
2013,04,27,06,36,9.90
2013,04,27,06,37,9.90
2013,04,27,06,38,9.90
2013,04,27,06,39,9.90
2013,04,27,06,41,9.90
2013,04,27,06,42,9.90
2013,04,27,06,43,9.90
2013,04,27,06,44,9.90
2013,04,27,06,45,9.90
2013,04,27,06,46,9.90
2013,04,27,06,47,9.90
2013,04,27,06,48,9.90
2013,04,27,06,50,9.90
2013,04,27,06,51,9.90
2013,04,27,06,52,9.90
2013,04,27,06,53,9.90
2013,04,27,06,54,9.90
2013,04,27,06,55,9.90
2013,04,27,06,56,9.90
2013,04,27,06,58,9.90
2013,04,27,06,59,9.90
2013,04,27,07,00,9.90
2013,04,27,07,01,9.90
2013,04,27,07,02,10.00
2013,04,27,07,03,10.00
2013,04,27,07,04,10.10
2013,04,27,07,06,10.10
2013,04,27,07,07,10.10
2013,04,27,07,08,10.20
2013,04,27,07,09,10.20
2013,04,27,07,10,10.20
2013,04,27,07,11,10.30
2013,04,27,07,12,10.30
2013,04,27,07,13,10.30
2013,04,27,07,14,10.40
2013,04,27,07,15,10.40
2013,04,27,07,17,10.40
2013,04,27,07,18,10.50
2013,04,27,07,19,10.60
2013,04,27,07,20,10.60
2013,04,27,07,22,10.70
2013,04,27,07,23,10.70
2013,04,27,07,24,10.70
2013,04,27,07,26,10.80
2013,04,27,07,27,10.80
2013,04,27,07,28,10.80
2013,04,27,07,29,10.80
2013,04,27,07,30,10.80
2013,04,27,07,32,10.80
2013,04,27,07,33,10.80
2013,04,27,07,34,10.80
2013,04,27,07,36,10.80
2013,04,27,07,37,10.80
2013,04,27,07,38,10.90
2013,04,27,07,39,10.90
2013,04,27,07,41,10.90
2013,04,27,07,42,10.90
2013,04,27,07,43,10.90
2013,04,27,07,44,10.90
2013,04,27,07,46,10.90
2013,04,27,07,47,10.90
2013,04,27,07,48,10.90
2013,04,27,07,50,10.90
2013,04,27,07,51,10.90
2013,04,27,07,52,10.90
2013,04,27,07,53,10.90
2013,04,27,07,55,11.00
2013,04,27,07,56,11.00
2013,04,27,07,57,11.00
2013,04,27,07,58,11.00
2013,04,27,08,00,11.00
2013,04,27,08,01,11.10
2013,04,27,08,02,11.10
2013,04,27,08,03,11.10
2013,04,27,08,04,11.10
2013,04,27,08,05,11.10
2013,04,27,08,06,11.10
2013,04,27,08,07,11.10
2013,04,27,08,09,11.20
2013,04,27,08,10,11.20
2013,04,27,08,11,11.20
2013,04,27,08,12,11.20
2013,04,27,08,14,11.20
2013,04,27,08,15,11.20
2013,04,27,08,16,11.20
2013,04,27,08,17,11.30
2013,04,27,08,18,11.30
2013,04,27,08,20,11.30
2013,04,27,08,21,11.30
2013,04,27,08,22,11.40
2013,04,27,08,23,11.40
2013,04,27,08,25,11.40
2013,04,27,08,26,11.40
2013,04,27,08,27,11.50
2013,04,27,08,29,11.50
2013,04,27,08,30,11.60
2013,04,27,08,31,11.60
2013,04,27,08,33,11.60
2013,04,27,08,34,11.60
2013,04,27,08,35,11.60
2013,04,27,08,36,11.70
2013,04,27,08,37,11.70
2013,04,27,08,38,11.70
2013,04,27,08,39,11.70
2013,04,27,08,40,11.70
2013,04,27,08,41,11.70
2013,04,27,08,42,11.70
2013,04,27,08,43,11.70
2013,04,27,08,44,11.80
2013,04,27,08,45,11.80
2013,04,27,08,46,11.80
2013,04,27,08,47,11.80
2013,04,27,08,48,11.80
2013,04,27,08,49,11.80
2013,04,27,08,50,11.80
2013,04,27,08,51,11.80
2013,04,27,08,53,11.80
2013,04,27,08,54,11.80
2013,04,27,08,55,11.80
2013,04,27,08,56,11.80
2013,04,27,08,57,11.80
2013,04,27,08,58,11.80
2013,04,27,08,59,11.90
2013,04,27,09,00,11.90
2013,04,27,09,01,11.90
2013,04,27,09,02,11.90
2013,04,27,09,03,11.90
2013,04,27,09,04,11.90
2013,04,27,09,05,12.00
2013,04,27,09,06,12.00
2013,04,27,09,07,12.00
2013,04,27,09,09,12.10
2013,04,27,09,10,12.10
2013,04,27,09,11,12.10
2013,04,27,09,12,12.20
2013,04,27,09,14,12.20
2013,04,27,09,15,12.20
2013,04,27,09,16,12.30
2013,04,27,09,17,12.30
2013,04,27,09,18,12.30
2013,04,27,09,19,12.30
2013,04,27,09,20,12.30
2013,04,27,09,21,12.30
2013,04,27,09,23,12.40
2013,04,27,09,24,12.40
2013,04,27,09,25,12.40
2013,04,27,09,26,12.40
2013,04,27,09,28,12.40
2013,04,27,09,29,12.40
2013,04,27,09,30,12.40
2013,04,27,09,31,12.40
2013,04,27,09,32,12.40
2013,04,27,09,33,12.40
2013,04,27,09,34,12.40
2013,04,27,09,35,12.40
2013,04,27,09,36,12.40
2013,04,27,09,38,12.40
2013,04,27,09,39,12.50
2013,04,27,09,40,12.50
2013,04,27,09,42,12.50
2013,04,27,09,43,12.50
2013,04,27,09,44,12.50
2013,04,27,09,45,12.50
2013,04,27,09,47,12.50
2013,04,27,09,48,12.50
2013,04,27,09,49,12.50
2013,04,27,09,50,12.50
2013,04,27,09,52,12.50
2013,04,27,09,53,12.50
2013,04,27,09,54,12.60
2013,04,27,09,55,12.60
2013,04,27,09,56,12.60
2013,04,27,09,57,12.60
2013,04,27,09,58,12.60
2013,04,27,09,59,12.60
2013,04,27,10,00,12.60
2013,04,27,10,02,12.60
2013,04,27,10,03,12.70
2013,04,27,10,04,12.70
2013,04,27,10,05,12.70
2013,04,27,10,07,12.70
2013,04,27,10,08,12.80
2013,04,27,10,09,12.80
2013,04,27,10,11,12.80
2013,04,27,10,12,12.80
2013,04,27,10,13,12.80
2013,04,27,10,15,12.80
2013,04,27,10,16,12.80
2013,04,27,10,17,12.80
2013,04,27,10,19,12.80
2013,04,27,10,20,12.80
2013,04,27,10,21,12.80
2013,04,27,10,22,12.70
2013,04,27,10,23,12.70
2013,04,27,10,24,12.70
2013,04,27,10,25,12.70
2013,04,27,10,26,12.70
2013,04,27,10,27,12.70
2013,04,27,10,29,12.70
2013,04,27,10,30,12.80
2013,04,27,10,31,12.80
2013,04,27,10,33,12.80
2013,04,27,10,34,12.90
2013,04,27,10,35,12.90
2013,04,27,10,36,12.90
2013,04,27,10,38,12.90
2013,04,27,10,39,12.90
2013,04,27,10,40,12.90
2013,04,27,10,41,12.90
2013,04,27,10,43,12.90
2013,04,27,10,44,12.90
2013,04,27,10,45,12.90
2013,04,27,10,46,12.90
2013,04,27,10,48,12.90
2013,04,27,10,49,12.90
2013,04,27,10,50,12.90
2013,04,27,10,51,12.90
2013,04,27,10,52,12.90
2013,04,27,10,53,12.90
2013,04,27,10,54,12.90
2013,04,27,10,55,12.80
2013,04,27,10,56,12.80
2013,04,27,10,57,12.70
2013,04,27,10,58,12.70
2013,04,27,10,59,12.60
2013,04,27,11,00,12.60
2013,04,27,11,01,12.50
2013,04,27,11,02,12.40
2013,04,27,11,04,12.40
2013,04,27,11,05,12.30
2013,04,27,11,06,12.30
2013,04,27,11,07,12.30
2013,04,27,11,09,12.30
2013,04,27,11,10,12.20
2013,04,27,11,11,12.20
2013,04,27,11,12,12.10
2013,04,27,11,13,12.10
2013,04,27,11,15,12.10
2013,04,27,11,16,12.00
2013,04,27,11,17,11.90
2013,04,27,11,18,11.90
2013,04,27,11,20,11.80
2013,04,27,11,21,11.70
2013,04,27,11,22,11.60
2013,04,27,11,23,11.60
2013,04,27,11,25,11.60
2013,04,27,11,26,11.50
2013,04,27,11,27,11.40
2013,04,27,11,28,11.40
2013,04,27,11,30,11.40
2013,04,27,11,31,11.30
2013,04,27,11,32,11.30
2013,04,27,11,34,11.30
2013,04,27,11,35,11.20
2013,04,27,11,36,11.20
2013,04,27,11,37,11.20
2013,04,27,11,39,11.20
2013,04,27,11,40,11.10
2013,04,27,11,41,11.10
2013,04,27,11,42,11.00
2013,04,27,11,43,11.10
2013,04,27,11,44,11.00
2013,04,27,11,45,11.00
2013,04,27,11,46,11.00
2013,04,27,11,47,10.90
2013,04,27,11,48,11.00
2013,04,27,11,49,11.00
2013,04,27,11,50,10.90
2013,04,27,11,52,10.90
2013,04,27,11,53,10.90
2013,04,27,11,54,10.90
2013,04,27,11,55,10.90
2013,04,27,11,56,10.90
2013,04,27,11,57,10.90
2013,04,27,11,58,10.90
2013,04,27,11,59,11.00
2013,04,27,12,00,11.00
2013,04,27,12,02,11.00
2013,04,27,12,03,11.00
2013,04,27,12,04,11.10
2013,04,27,12,05,11.10
2013,04,27,12,07,11.10
2013,04,27,12,08,11.00
2013,04,27,12,09,11.00
2013,04,27,12,10,11.00
2013,04,27,12,11,11.00
2013,04,27,12,13,11.00
2013,04,27,12,14,11.00
2013,04,27,12,15,11.00
2013,04,27,12,16,11.10
2013,04,27,12,18,11.10
2013,04,27,12,19,11.00
2013,04,27,12,20,11.00
2013,04,27,12,21,11.10
2013,04,27,12,23,11.10
2013,04,27,12,24,11.10
2013,04,27,12,25,11.10
2013,04,27,12,26,11.10
2013,04,27,12,28,11.10
2013,04,27,12,29,11.10
2013,04,27,12,30,11.20
2013,04,27,12,31,11.20
2013,04,27,12,32,11.20
2013,04,27,12,33,11.20
2013,04,27,12,34,11.20
2013,04,27,12,35,11.10
2013,04,27,12,36,11.20
2013,04,27,12,38,11.20
2013,04,27,12,39,11.20
2013,04,27,12,40,11.20
2013,04,27,12,42,11.20
2013,04,27,12,43,11.10
2013,04,27,12,44,11.20
2013,04,27,12,45,11.20
2013,04,27,12,46,11.20
2013,04,27,12,47,11.20
2013,04,27,12,48,11.20
2013,04,27,12,49,11.10
2013,04,27,12,50,11.10
2013,04,27,12,52,11.10
2013,04,27,12,53,11.00
2013,04,27,12,54,10.90
2013,04,27,12,55,10.90
2013,04,27,12,57,10.90
2013,04,27,12,58,10.90
2013,04,27,12,59,10.90
2013,04,27,13,01,10.90
2013,04,27,13,02,10.90
2013,04,27,13,03,10.90
2013,04,27,13,05,11.00
2013,04,27,13,06,11.00
2013,04,27,13,07,11.00
2013,04,27,13,08,11.00
2013,04,27,13,10,11.00
2013,04,27,13,11,10.90
2013,04,27,13,12,10.90
2013,04,27,13,13,10.90
2013,04,27,13,15,10.90
2013,04,27,13,16,10.90
2013,04,27,13,17,10.90
2013,04,27,13,18,11.10
2013,04,27,13,20,11.10
2013,04,27,13,21,11.20
2013,04,27,13,22,11.20
2013,04,27,13,23,11.20
2013,04,27,13,25,11.30
2013,04,27,13,26,11.30
2013,04,27,13,27,11.30
2013,04,27,13,28,11.20
2013,04,27,13,30,11.20
2013,04,27,13,31,11.20
2013,04,27,13,32,11.20
2013,04,27,13,33,11.20
2013,04,27,13,34,11.20
2013,04,27,13,36,11.20
2013,04,27,13,37,11.20
2013,04,27,13,38,11.20
2013,04,27,13,39,11.20
2013,04,27,13,41,11.20
2013,04,27,13,42,11.20
2013,04,27,13,43,11.20
2013,04,27,13,44,11.20
2013,04,27,13,46,11.20
2013,04,27,13,47,11.20
2013,04,27,13,48,11.10
2013,04,27,13,49,11.10
2013,04,27,13,50,11.10
2013,04,27,13,52,11.20
2013,04,27,13,53,11.20
2013,04,27,13,54,11.20
2013,04,27,13,55,11.20
2013,04,27,13,57,11.20
2013,04,27,13,58,11.10
2013,04,27,13,59,11.20
2013,04,27,14,00,11.20
2013,04,27,14,01,11.10
2013,04,27,14,02,11.10
2013,04,27,14,03,11.20
2013,04,27,14,04,11.20
2013,04,27,14,05,11.20
2013,04,27,14,06,11.20
2013,04,27,14,08,11.20
2013,04,27,14,09,11.20
2013,04,27,14,10,11.20
2013,04,27,14,11,11.20
2013,04,27,14,12,11.20
2013,04,27,14,13,11.30
2013,04,27,14,14,11.30
2013,04,27,14,15,11.30
2013,04,27,14,16,11.20
2013,04,27,14,17,11.20
2013,04,27,14,18,11.20
2013,04,27,14,19,11.20
2013,04,27,14,20,11.20
2013,04,27,14,21,11.20
2013,04,27,14,23,11.20
2013,04,27,14,24,11.20
2013,04,27,14,25,11.20
2013,04,27,14,26,11.20
2013,04,27,14,27,11.10
2013,04,27,14,28,11.10
2013,04,27,14,29,11.10
2013,04,27,14,30,11.10
2013,04,27,14,31,11.20
2013,04,27,14,33,11.20
2013,04,27,14,34,11.30
2013,04,27,14,35,11.40
2013,04,27,14,37,11.40
2013,04,27,14,38,11.50
2013,04,27,14,39,11.50
2013,04,27,14,40,11.50
2013,04,27,14,41,11.50
2013,04,27,14,43,11.50
2013,04,27,14,44,11.40
2013,04,27,14,45,11.40
2013,04,27,14,46,11.50
2013,04,27,14,48,11.50
2013,04,27,14,49,11.50
2013,04,27,14,50,11.60
2013,04,27,14,51,11.60
2013,04,27,14,53,11.60
2013,04,27,14,54,11.60
2013,04,27,14,55,11.60
2013,04,27,14,57,11.60
2013,04,27,14,58,11.60
2013,04,27,14,59,11.60
2013,04,27,15,00,11.70
2013,04,27,15,02,11.70
2013,04,27,15,03,11.60
2013,04,27,15,04,11.60
2013,04,27,15,06,11.60
2013,04,27,15,07,11.60
2013,04,27,15,08,11.60
2013,04,27,15,09,11.60
2013,04,27,15,11,11.60
2013,04,27,15,12,11.70
2013,04,27,15,13,11.70
2013,04,27,15,14,11.70
2013,04,27,15,16,11.70
2013,04,27,15,17,11.60
2013,04,27,15,18,11.50
2013,04,27,15,20,11.50
2013,04,27,15,21,11.60
2013,04,27,15,22,11.60
2013,04,27,15,23,11.70
2013,04,27,15,24,11.70
2013,04,27,15,25,11.80
2013,04,27,15,26,11.80
2013,04,27,15,27,11.70
2013,04,27,15,28,11.70
2013,04,27,15,29,11.70
2013,04,27,15,31,11.70
2013,04,27,15,32,11.70
2013,04,27,15,33,11.70
2013,04,27,15,34,11.80
2013,04,27,15,36,11.80
2013,04,27,15,37,11.80
2013,04,27,15,38,11.90
2013,04,27,15,40,11.90
2013,04,27,15,41,11.90
2013,04,27,15,42,11.90
2013,04,27,15,43,11.80
2013,04,27,15,45,11.90
2013,04,27,15,46,11.80
2013,04,27,15,47,11.90
2013,04,27,15,48,11.90
2013,04,27,15,49,11.80
2013,04,27,15,51,11.80
2013,04,27,15,52,11.80
2013,04,27,15,53,11.80
2013,04,27,15,54,11.70
2013,04,27,15,56,11.70
2013,04,27,15,57,11.70
2013,04,27,15,58,11.70
2013,04,27,15,59,11.70
2013,04,27,16,01,11.70
2013,04,27,16,02,11.70
2013,04,27,16,03,11.70
2013,04,27,16,04,11.70
2013,04,27,16,06,11.70
2013,04,27,16,07,11.60
2013,04,27,16,08,11.60
2013,04,27,16,09,11.60
2013,04,27,16,11,11.60
2013,04,27,16,12,11.60
2013,04,27,16,13,11.50
2013,04,27,16,14,11.60
2013,04,27,16,16,11.60
2013,04,27,16,17,11.60
2013,04,27,16,18,11.60
2013,04,27,16,19,11.60
2013,04,27,16,21,11.60
2013,04,27,16,22,11.60
2013,04,27,16,23,11.50
2013,04,27,16,24,11.50
2013,04,27,16,26,11.60
2013,04,27,16,27,11.60
2013,04,27,16,28,11.60
2013,04,27,16,29,11.50
2013,04,27,16,31,11.50
2013,04,27,16,32,11.50
2013,04,27,16,33,11.60
2013,04,27,16,34,11.50
2013,04,27,16,35,11.50
2013,04,27,16,36,11.50
2013,04,27,16,37,11.60
2013,04,27,16,38,11.60
2013,04,27,16,40,11.60
2013,04,27,16,41,11.60
2013,04,27,16,42,11.50
2013,04,27,16,43,11.50
2013,04,27,16,45,11.50
2013,04,27,16,46,11.40
2013,04,27,16,47,11.40
2013,04,27,16,48,11.30
2013,04,27,16,50,11.30
2013,04,27,16,51,11.40
2013,04,27,16,52,11.40
2013,04,27,16,53,11.40
2013,04,27,16,54,11.40
2013,04,27,16,55,11.50
2013,04,27,16,56,11.60
2013,04,27,16,57,11.60
2013,04,27,16,59,11.60
2013,04,27,17,00,11.60
2013,04,27,17,01,11.60
2013,04,27,17,02,11.60
2013,04,27,17,03,11.60
2013,04,27,17,04,11.60
2013,04,27,17,05,11.60
2013,04,27,17,06,11.60
2013,04,27,17,07,11.60
2013,04,27,17,09,11.60
2013,04,27,17,10,11.60
2013,04,27,17,11,11.60
2013,04,27,17,12,11.60
2013,04,27,17,14,11.70
2013,04,27,17,15,11.60
2013,04,27,17,16,11.70
2013,04,27,17,17,11.70
2013,04,27,17,19,11.70
2013,04,27,17,20,11.80
2013,04,27,17,21,11.80
2013,04,27,17,23,11.80
2013,04,27,17,24,11.80
2013,04,27,17,25,11.80
2013,04,27,17,26,11.80
2013,04,27,17,27,11.80
2013,04,27,17,29,11.80
2013,04,27,17,30,11.80
2013,04,27,17,31,11.80
2013,04,27,17,32,11.80
2013,04,27,17,33,11.80
2013,04,27,17,34,11.80
2013,04,27,17,35,11.80
2013,04,27,17,36,11.80
2013,04,27,17,37,11.80
2013,04,27,17,39,11.80
2013,04,27,17,40,11.80
2013,04,27,17,41,11.80
2013,04,27,17,42,11.80
2013,04,27,17,43,11.80
2013,04,27,17,44,11.80
2013,04,27,17,45,11.80
2013,04,27,17,46,11.80
2013,04,27,17,48,11.80
2013,04,27,17,49,11.80
2013,04,27,17,50,11.80
2013,04,27,17,51,11.80
2013,04,27,17,52,11.80
2013,04,27,17,53,11.80
2013,04,27,17,54,11.90
2013,04,27,17,55,11.90
2013,04,27,17,57,11.90
2013,04,27,17,58,12.00
2013,04,27,17,59,12.00
2013,04,27,18,00,12.10
2013,04,27,18,01,12.20
2013,04,27,18,02,12.20
2013,04,27,18,03,12.20
2013,04,27,18,04,12.30
2013,04,27,18,05,12.30
2013,04,27,18,07,12.30
2013,04,27,18,08,12.40
2013,04,27,18,09,12.40
2013,04,27,18,10,12.40
2013,04,27,18,12,12.40
2013,04,27,18,13,12.40
2013,04,27,18,14,12.30
2013,04,27,18,15,12.30
2013,04,27,18,17,12.20
2013,04,27,18,18,12.20
2013,04,27,18,19,12.10
2013,04,27,18,21,12.10
2013,04,27,18,22,12.00
2013,04,27,18,23,12.00
2013,04,27,18,24,11.90
2013,04,27,18,25,11.90
2013,04,27,18,26,11.90
2013,04,27,18,27,11.90
2013,04,27,18,28,11.90
2013,04,27,18,29,11.90
2013,04,27,18,30,11.90
2013,04,27,18,31,11.90
2013,04,27,18,32,11.90
2013,04,27,18,33,11.90
2013,04,27,18,35,11.90
2013,04,27,18,36,11.90
2013,04,27,18,37,11.90
2013,04,27,18,38,11.90
2013,04,27,18,40,11.90
2013,04,27,18,41,11.80
2013,04,27,18,42,11.80
2013,04,27,18,43,11.80
2013,04,27,18,45,11.80
2013,04,27,18,46,11.80
2013,04,27,18,47,11.80
2013,04,27,18,49,11.80
2013,04,27,18,50,11.80
2013,04,27,18,51,11.70
2013,04,27,18,52,11.70
2013,04,27,18,54,11.70
2013,04,27,18,55,11.70
2013,04,27,18,56,11.60
2013,04,27,18,57,11.60
2013,04,27,18,59,11.60
2013,04,27,19,00,11.50
2013,04,27,19,01,11.50
2013,04,27,19,02,11.50
2013,04,27,19,03,11.50
2013,04,27,19,04,11.50
2013,04,27,19,05,11.50
2013,04,27,19,06,11.50
2013,04,27,19,07,11.50
2013,04,27,19,08,11.60
2013,04,27,19,10,11.60
2013,04,27,19,11,11.60
2013,04,27,19,12,11.70
2013,04,27,19,13,11.70
2013,04,27,19,14,11.80
2013,04,27,19,16,11.80
2013,04,27,19,17,11.90
2013,04,27,19,18,12.00
2013,04,27,19,19,12.00
2013,04,27,19,20,12.00
2013,04,27,19,22,12.00
2013,04,27,19,23,12.00
2013,04,27,19,24,12.00
2013,04,27,19,26,11.90
2013,04,27,19,27,11.90
2013,04,27,19,28,11.90
2013,04,27,19,29,11.90
2013,04,27,19,31,11.90
2013,04,27,19,32,11.90
2013,04,27,19,33,11.80
2013,04,27,19,34,11.80
2013,04,27,19,36,11.80
2013,04,27,19,37,11.80
2013,04,27,19,38,11.80
2013,04,27,19,40,11.70
2013,04,27,19,41,11.60
2013,04,27,19,42,11.60
2013,04,27,19,43,11.60
2013,04,27,19,45,11.50
2013,04,27,19,46,11.40
2013,04,27,19,47,11.40
2013,04,27,19,48,11.40
2013,04,27,19,50,11.30
2013,04,27,19,51,11.30
2013,04,27,19,52,11.30
2013,04,27,19,53,11.30
2013,04,27,19,55,11.30
2013,04,27,19,56,11.20
2013,04,27,19,57,11.20
2013,04,27,19,58,11.20
2013,04,27,19,59,11.20
2013,04,27,20,01,11.20
2013,04,27,20,02,11.10
2013,04,27,20,03,11.10
2013,04,27,20,04,11.10
2013,04,27,20,05,11.00
2013,04,27,20,07,11.00
2013,04,27,20,08,10.90
2013,04,27,20,09,10.90
2013,04,27,20,10,10.80
2013,04,27,20,12,10.80
2013,04,27,20,13,10.80
2013,04,27,20,14,10.80
2013,04,27,20,15,10.80
2013,04,27,20,16,10.70
2013,04,27,20,17,10.70
2013,04,27,20,18,10.70
2013,04,27,20,19,10.60
2013,04,27,20,21,10.60
2013,04,27,20,22,10.50
2013,04,27,20,23,10.40
2013,04,27,20,24,10.40
2013,04,27,20,26,10.30
2013,04,27,20,27,10.30
2013,04,27,20,28,10.30
2013,04,27,20,30,10.20
2013,04,27,20,31,10.20
2013,04,27,20,32,10.10
2013,04,27,20,33,10.10
2013,04,27,20,35,10.10
2013,04,27,20,36,10.00
2013,04,27,20,37,10.00
2013,04,27,20,38,9.90
2013,04,27,20,39,9.90
2013,04,27,20,41,9.90
2013,04,27,20,42,9.80
2013,04,27,20,43,9.80
2013,04,27,20,44,9.80
2013,04,27,20,46,9.80